EHI
6 13 21 21 18 19 25 30 33 33 31 26 20 14 10 7 5 3 1 0 0 1 2 2 1 0 0 0 0 0 0 0 0 0 0 0 0 0 0 0 0 0 0
12 18 24 24 21 22 27 33 35 33 29 24 18 14 10 7 5 2 1 0 0 0 1 1 0 0 0 0 0 0 0 0 0 0 0 0 0 0 0 0 0 0 0
19 23 26 28 27 25 28 32 33 31 25 21 17 14 10 7 4 1 0 0 0 0 0 0 0 0 0 0 0 0 0 0 0 0 0 0 0 0 0 0 0 0 0
22 23 26 30 30 27 25 26 28 26 21 19 17 14 10 6 3 1 0 0 0 0 0 0 0 0 0 0 0 0 0 0 0 0 0 0 0 0 0 0 0 0 0
22 23 25 28 30 26 23 23 24 22 19 17 16 13 9 5 2 1 1 1 1 0 0 0 0 0 0 0 0 0 0 0 0 0 0 0 0 0 0 0 0 0 0
22 22 24 26 27 25 23 22 22 21 19 17 14 12 9 5 3 3 2 2 1 0 0 0 0 0 0 0 0 0 0 0 0 0 0 0 0 0 0 0 0 0 0
21 23 23 24 24 21 20 21 21 20 19 17 13 12 10 6 4 3 2 1 0 0 0 0 0 0 0 0 0 0 0 0 0 0 0 0 0 0 0 0 0 0 0
23 25 25 23 21 19 17 19 21 20 18 16 13 12 11 9 6 3 2 0 0 0 0 0 1 1 1 1 0 0 0 0 0 0 0 0 0 0 0 0 0 0 0
24 26 26 23 20 18 16 17 19 18 17 15 12 10 9 8 5 3 2 1 0 0 1 1 2 2 2 1 0 0 0 0 0 0 0 0 0 0 0 0 0 0 0
22 24 25 23 20 18 17 15 14 14 14 13 9 6 5 3 2 2 2 1 0 1 2 2 2 2 2 1 0 0 0 0 0 0 0 0 0 0 0 0 0 0 0
20 22 23 21 18 17 15 13 12 11 12 11 6 2 2 1 0 1 1 1 0 1 2 2 1 1 1 0 0 0 0 0 0 0 0 0 0 0 0 0 0 0 0
17 18 19 17 15 15 15 13 13 12 11 8 4 1 0 0 0 0 0 0 0 1 1 1 0 0 0 0 0 0 0 0 0 0 0 0 0 0 0 0 0 0 0
11 13 14 13 11 11 13 14 15 14 11 6 2 0 0 0 0 0 0 0 0 0 0 0 0 0 0 0 0 0 0 0 0 0 0 0 0 0 0 0 0 0 0
7 9 11 12 10 8 9 12 14 14 11 6 2 0 0 0 0 0 0 0 0 0 0 0 0 0 0 0 0 0 0 0 0 0 0 0 0 0 0 0 0 0 0
6 8 10 11 9 7 8 9 11 11 9 5 1 0 0 0 0 0 0 0 0 0 0 0 0 0 0 0 0 0 0 0 0 0 0 0 0 0 0 0 0 0 0
6 7 8 9 8 7 7 8 8 7 6 3 1 0 0 0 0 0 0 0 0 0 0 0 0 0 0 0 0 0 0 0 0 0 0 0 0 0 0 0 0 0 0
6 7 7 8 7 7 6 6 6 6 5 3 1 0 0 0 0 0 0 0 0 0 0 0 0 0 0 0 0 0 0 0 0 0 0 0 0 0 0 0 0 0 0
6 6 7 7 7 6 5 4 3 4 5 4 1 0 0 0 0 0 0 0 0 0 0 0 0 0 0 0 0 0 0 0 0 0 0 0 0 0 0 0 0 0 0
5 6 6 6 6 5 3 1 1 1 3 2 1 0 0 0 0 0 0 0 0 0 0 0 0 0 0 0 0 0 0 0 0 0 0 0 0 0 0 0 0 0 0
4 5 5 4 4 3 1 0 0 0 1 1 0 0 0 0 0 0 0 0 0 0 0 0 0 0 0 0 0 0 0 0 0 0 0 0 0 0 0 0 0 0 0
4 4 4 3 3 2 1 0 0 0 0 0 0 0 0 0 0 0 0 0 0 0 0 0 0 0 0 0 0 0 0 0 0 0 0 0 0 0 0 0 0 0 0
3 3 3 2 2 1 0 0 0 0 0 0 0 0 0 0 0 0 0 0 0 0 0 0 0 0 0 0 0 0 0 0 0 0 0 0 0 0 0 0 0 0 0
1 1 1 1 1 0 0 0 0 0 0 0 0 0 0 0 0 0 0 0 0 0 0 0 0 0 0 0 0 0 0 0 0 0 0 0 0 0 0 0 0 0 0
0 0 0 0 0 0 0 0 0 0 0 0 0 0 0 0 0 0 0 0 0 0 0 0 0 0 0 0 0 0 0 0 0 0 0 0 0 0 0 0 0 0 0
0 0 0 0 0 0 0 0 0 0 0 0 0 0 0 0 0 0 0 0 0 0 0 0 0 0 0 0 0 0 0 0 0 0 0 0 0 0 0 0 0 0 0
0 0 0 0 0 0 0 0 0 0 0 0 0 0 0 0 0 0 0 0 0 0 0 0 0 0 0 0 0 0 0 0 0 0 0 0 0 0 0 0 0 0 0
Wind_Speed
5 6 13 15 15 14 14 14 15 15 15 15 15 15 15 15 14 14 13 13 13 13 14 14 15 15 16 16 16 16 15 15 15 15 15 15 15 16 17 16 14 10 17
7 8 14 15 15 15 14 14 14 14 14 15 15 15 14 14 14 13 13 13 12 13 13 14 14 15 15 15 16 16 16 15 15 14 13 12 13 16 16 16 15 11 16
9 9 12 15 15 15 14 14 14 14 14 14 14 14 14 13 13 13 13 12 13 13 13 14 14 15 14 14 15 15 15 15 14 14 12 6 9 15 15 15 15 16 16
9 8 9 14 15 14 14 14 14 14 14 13 13 13 13 13 13 12 12 12 12 12 13 13 14 14 14 14 15 15 15 14 13 12 6 5 6 13 14 14 14 15 15
7 6 9 14 14 14 14 14 13 14 13 13 12 12 12 12 12 12 12 12 12 12 12 13 13 14 14 14 14 14 14 14 12 9 5 5 5 12 13 14 14 14 14
6 5 8 13 13 13 13 13 13 13 13 13 12 12 12 12 12 12 12 11 11 11 12 12 13 13 13 13 13 13 13 13 9 5 5 4 4 11 13 13 13 14 13
6 5 7 11 11 11 12 12 12 12 13 12 12 12 12 12 12 11 11 11 11 11 12 12 12 12 12 12 12 12 12 11 6 5 4 4 5 12 12 13 13 13 13
6 5 6 9 10 10 10 10 11 11 12 12 11 12 11 11 11 11 11 10 11 11 11 11 12 12 12 11 12 11 10 8 6 5 4 3 8 11 12 12 13 13 12
5 5 4 5 6 8 8 8 9 9 10 10 10 10 10 10 10 11 10 10 10 11 11 11 11 11 12 12 11 11 10 9 5 3 3 3 9 11 12 12 12 12 12
5 4 3 3 4 4 5 7 7 8 8 9 9 9 9 9 9 9 8 8 9 10 10 11 11 11 12 11 11 11 10 7 4 4 2 4 9 10 11 11 11 11 11
4 3 3 3 3 3 3 5 6 7 7 7 7 9 8 5 5 5 6 7 8 9 10 10 10 10 10 9 10 10 7 3 3 2 2 6 8 9 10 10 10 11 10
2 2 2 2 2 2 3 3 3 3 4 4 3 4 4 4 3 4 6 7 8 8 9 10 10 9 7 4 6 7 3 4 3 2 2 6 8 9 9 9 10 10 9
1 2 2 2 2 2 2 2 2 2 3 3 4 4 3 3 3 3 2 3 4 5 4 6 6 4 4 3 3 3 3 3 2 2 2 6 6 8 8 9 9 9 9
2 2 2 2 2 2 2 2 2 2 2 2 3 4 3 2 3 3 2 2 3 2 3 3 3 4 4 4 4 4 3 2 2 2 2 5 5 6 7 8 9 8 8
4 3 2 2 2 2 2 1 2 2 2 2 3 3 3 3 3 3 2 2 3 3 3 4 4 4 4 4 3 4 3 3 3 2 2 4 5 5 6 7 8 7 7
4 4 3 2 2 2 1 1 1 2 2 3 2 3 3 3 3 3 3 3 2 3 3 3 4 4 3 3 3 3 3 3 3 2 2 3 4 4 5 6 7 7 6
4 4 3 2 2 2 1 1 1 1 2 2 2 3 3 3 3 3 3 3 3 3 4 3 4 3 3 3 3 2 2 2 2 2 2 2 2 3 4 5 5 6 6
4 5 4 2 2 2 1 1 0 1 2 2 2 3 3 3 3 3 3 3 3 3 3 4 4 3 3 2 2 2 2 2 2 2 2 2 2 2 3 4 4 4 4
4 4 4 3 2 2 1 1 1 0 1 2 2 2 3 3 3 3 3 3 3 3 3 4 3 3 3 3 2 2 1 1 2 2 2 2 2 2 1 3 4 3 2
4 4 3 3 3 2 1 1 1 1 1 0 2 2 3 2 3 3 2 3 4 3 3 3 4 3 3 4 3 2 1 1 1 1 1 1 1 1 1 1 1 1 2
5 5 4 3 3 2 2 1 0 1 1 0 0 1 3 3 3 3 2 3 4 4 4 5 4 4 3 3 3 2 1 1 1 1 1 1 1 1 1 1 1 1 1
6 6 4 3 2 2 1 1 1 1 1 1 1 1 2 3 4 3 3 3 4 3 4 4 4 3 2 2 3 3 1 1 1 0 1 1 1 0 1 1 1 1 0
6 6 5 4 3 3 2 1 1 1 1 0 1 1 1 2 3 3 4 3 4 4 4 4 5 5 4 2 2 3 4 3 1 1 1 1 1 1 1 1 1 1 1
7 6 5 4 4 3 2 1 1 1 1 2 2 2 2 2 3 3 3 4 4 4 4 5 4 3 5 4 2 1 2 3 3 1 1 1 1 2 2 1 1 1 1
8 6 5 4 4 3 2 2 1 1 1 2 2 2 1 2 2 2 2 3 3 3 4 5 4 3 3 4 3 3 2 1 2 3 2 1 1 1 2 2 2 2 2
8 6 6 5 4 4 3 2 1 1 2 2 2 2 2 1 1 2 2 3 3 3 4 5 5 4 4 4 3 3 3 3 3 3 3 2 2 1 1 1 2 2 2
Wind_Direction
168 165 159 151 145 141 136 131 127 124 123 122 121 120 119 117 115 114 112 108 106 105 102 100 99 98 98 95 93 91 89 86 84 82 81 82 84 85 82 79 76 72 79
151 159 157 151 147 143 139 134 129 127 125 124 123 122 120 119 119 119 117 115 113 109 105 103 100 98 97 97 95 92 91 89 86 81 77 77 82 84 83 80 80 79 79
144 154 154 149 146 143 140 137 133 130 128 126 125 125 123 122 121 120 120 118 115 112 108 105 103 100 99 98 96 94 93 91 87 82 75 66 80 86 84 81 80 80 80
146 151 151 149 145 143 142 139 137 134 132 128 126 126 125 125 124 122 120 118 115 111 108 106 105 103 102 100 97 95 93 91 86 81 66 62 74 88 86 84 82 81 80
138 143 151 148 146 144 143 142 141 138 134 131 129 128 127 125 125 123 119 117 114 111 109 106 105 105 104 102 100 98 95 92 85 75 64 62 68 89 89 86 83 82 81
124 126 144 145 147 145 144 145 143 141 137 134 133 131 129 127 124 122 118 116 113 112 113 110 108 106 105 104 103 101 98 94 83 69 64 64 72 91 90 88 84 83 83
128 127 140 139 142 144 146 147 146 144 141 138 136 134 131 128 125 122 118 118 117 116 115 114 112 108 106 105 105 102 99 95 85 73 65 67 86 93 91 89 86 85 84
121 125 134 139 140 140 143 147 147 146 143 141 139 135 131 128 127 125 122 122 121 120 118 117 115 113 109 106 106 102 96 92 89 80 70 76 96 96 94 92 89 87 86
99 103 111 129 138 141 141 140 143 144 143 141 138 133 129 127 127 126 124 126 125 121 119 116 115 115 113 109 107 101 93 87 80 73 72 77 98 96 95 93 92 90 88
80 85 94 108 121 127 137 135 132 132 135 135 132 126 122 123 125 127 124 126 126 122 120 117 113 115 114 111 107 102 93 83 75 69 62 90 98 98 97 97 97 94 91
79 67 76 79 105 121 129 128 124 122 121 123 126 124 118 114 116 121 123 123 124 122 120 119 115 110 107 107 106 102 91 79 82 71 63 97 103 101 100 101 101 97 95
97 74 71 80 87 106 129 121 117 114 112 105 109 118 117 115 115 116 122 122 120 118 120 119 115 107 95 92 95 94 84 85 79 73 84 100 107 106 105 104 102 100 97
100 64 49 62 83 89 106 122 114 112 109 106 109 109 115 113 112 106 109 111 104 106 105 109 102 95 96 100 96 90 90 84 75 59 74 97 108 113 112 110 106 102 100
37 36 31 45 60 86 91 126 129 124 124 126 130 124 121 124 125 127 121 119 112 108 110 106 107 105 104 105 104 100 94 89 81 64 65 88 102 112 114 113 111 107 104
24 15 14 29 48 59 106 117 136 142 143 143 142 138 133 136 144 143 136 130 127 121 122 120 117 117 116 114 111 108 104 97 90 75 58 71 90 102 112 118 116 110 105
7 357 3 25 30 39 67 101 142 159 151 148 151 147 142 141 148 151 147 144 138 134 130 128 129 125 123 122 118 115 115 108 95 85 70 54 66 83 103 111 114 111 108
356 353 358 7 26 36 46 46 138 169 152 156 161 152 148 144 151 152 154 157 154 140 129 118 114 109 117 116 118 118 116 112 110 99 90 71 49 55 80 104 110 113 110
2 358 350 356 18 21 26 7 274 159 162 164 164 163 160 153 149 150 157 165 156 145 139 135 130 118 115 118 123 126 119 114 113 113 102 95 78 57 48 67 85 99 111
360 360 351 359 19 7 11 17 352 157 158 163 164 169 171 164 158 154 166 164 158 151 148 149 137 135 135 130 122 110 112 118 127 120 118 110 101 91 68 49 58 65 82
359 2 356 2 10 14 26 35 24 30 57 100 171 173 167 171 166 156 159 165 160 158 158 153 144 134 139 141 121 91 70 95 99 120 134 121 114 114 102 74 48 22 43
7 7 -0 4 7 20 20 20 324 280 293 295 259 182 168 168 166 165 161 168 169 171 173 160 141 139 137 138 113 91 36 54 100 117 121 126 119 120 121 117 101 59 8
5 359 351 352 354 1 342 309 261 259 249 231 230 219 180 172 172 175 171 181 179 169 169 168 151 146 151 163 138 129 114 350 331 122 137 160 162 136 144 142 142 133 75
1 353 341 341 340 342 347 11 18 26 10 340 302 258 226 194 182 182 180 179 182 178 184 184 175 164 166 186 171 153 156 194 225 294 219 188 183 182 200 182 171 165 143
346 341 340 340 343 346 353 22 60 27 309 282 280 266 243 212 199 191 179 178 185 187 189 193 192 175 164 177 171 134 140 150 154 177 280 240 211 207 212 208 198 193 178
349 344 343 346 351 352 355 359 30 0 322 318 314 297 252 226 209 200 184 183 191 197 196 197 193 191 176 176 172 156 127 108 127 151 199 241 255 236 219 219 209 199 198
354 352 352 354 354 355 355 354 359 347 339 339 334 318 299 265 239 219 201 197 203 203 200 203 198 196 197 182 178 169 164 164 170 163 176 201 226 251 243 231 212 205 199